Location: Coupvray
(48.8929°N, 2.7967°E)
Time: 13:53:04
(UTC+00:00)

Altair 2 - Pass Details

Date: 26 January 2021
Orbit: 837 x 949 km, 90.2° (Epoch: 28 February)

Event Time Altitude Azimuth Distance (km) Brightness Sun altitude
Rises 19:28:50 0° 227° (SW) 3,381 11.4 -28.1°
Reaches altitude 10° 19:32:10 10° 248° (WSW) 2,451 10.9 -28.6°
Maximum altitude 19:35:30 16° 286° (WNW) 2,051 10.5 -29.2°
Drops below altitude 10° 19:38:52 10° 324° (NW) 2,474 10.6 -29.7°
Sets 19:42:17 0° 346° (NNW) 3,428 11.1 -30.3°
